DPV1018 SBGO-SBSV

Flight info

Callsign DPV1018
Flight time 1h 41m
Altitude 35000
Route LODUV DCT UGTAK UZ19 DOTBI
Aircraft B738/M-SDE2E3FGHIRWXY/LB1

Departure

Time 2026-04-24 14:12
Airport Santa Genoveva International Airport (SBGO)

Arrival

Time 2026-04-24 15:54
Airport Deputado Luiz Eduardo Magalhães International Airport (SBSV)
Time Latitude Longitude Altitude Speed Heading
2026-04-24 13:53 -16.63006 -49.21511 2468 ft 0 kts 56°
2026-04-24 14:05 -16.63007 -49.21512 2471 ft 1 kts 56°
2026-04-24 14:05 -16.63015 -49.21524 2471 ft 2 kts 56°
2026-04-24 14:05 -16.63023 -49.21537 2471 ft 2 kts 56°
2026-04-24 14:06 -16.63029 -49.21546 2471 ft 2 kts 52°
2026-04-24 14:06 -16.63041 -49.21555 2471 ft 2 kts 15°
2026-04-24 14:06 -16.63056 -49.21556 2471 ft 2 kts 346°
2026-04-24 14:06 -16.63068 -49.21551 2471 ft 0 kts 322°
2026-04-24 14:07 -16.63073 -49.21546 2471 ft 1 kts 318°
2026-04-24 14:07 -16.63073 -49.21545 2471 ft 0 kts 319°
2026-04-24 14:08 -16.63073 -49.21546 2471 ft 0 kts 319°
2026-04-24 14:08 -16.63060 -49.21558 2471 ft 4 kts 319°
2026-04-24 14:09 -16.63029 -49.21581 2471 ft 9 kts 327°
2026-04-24 14:09 -16.62938 -49.21627 2471 ft 16 kts 322°
2026-04-24 14:09 -16.62939 -49.21771 2471 ft 25 kts 256°
2026-04-24 14:09 -16.62982 -49.21971 2471 ft 29 kts 259°
2026-04-24 14:10 -16.62965 -49.22179 2471 ft 29 kts 296°
2026-04-24 14:10 -16.62860 -49.22366 2471 ft 30 kts 300°
2026-04-24 14:10 -16.62752 -49.22559 2471 ft 30 kts 301°
2026-04-24 14:10 -16.62648 -49.22745 2471 ft 28 kts 300°
2026-04-24 14:11 -16.62579 -49.22906 2471 ft 18 kts 245°
2026-04-24 14:11 -16.62675 -49.22973 2471 ft 15 kts 182°
2026-04-24 14:11 -16.62915 -49.22601 2471 ft 86 kts 120°
2026-04-24 14:12 -16.63337 -49.21847 2471 ft 153 kts 121°
2026-04-24 14:12 -16.63955 -49.20755 2662 ft 182 kts 120°
2026-04-24 14:12 -16.64574 -49.19611 2949 ft 183 kts 119°
2026-04-24 14:12 -16.65187 -49.18445 3691 ft 183 kts 117°
2026-04-24 14:13 -16.65690 -49.17193 4113 ft 197 kts 106°
2026-04-24 14:13 -16.65721 -49.15736 4460 ft 216 kts 70°
2026-04-24 14:13 -16.64798 -49.14451 4922 ft 231 kts 37°
2026-04-24 14:13 -16.63409 -49.13534 5375 ft 245 kts 33°
2026-04-24 14:14 -16.61981 -49.12453 5908 ft 256 kts 43°
2026-04-24 14:14 -16.60748 -49.11114 6505 ft 263 kts 51°
2026-04-24 14:14 -16.58417 -49.07986 7710 ft 278 kts 54°
2026-04-24 14:15 -16.57244 -49.06404 8411 ft 280 kts 53°
2026-04-24 14:15 -16.56029 -49.04798 9086 ft 284 kts 53°
2026-04-24 14:15 -16.54789 -49.03180 9714 ft 288 kts 53°
2026-04-24 14:15 -16.53532 -49.01545 10333 ft 292 kts 53°
2026-04-24 14:16 -16.52233 -48.99855 10700 ft 306 kts 53°
2026-04-24 14:16 -16.50873 -48.98077 11004 ft 321 kts 53°
2026-04-24 14:16 -16.49445 -48.96201 11277 ft 338 kts 53°
2026-04-24 14:17 -16.46388 -48.92173 11790 ft 370 kts 53°
2026-04-24 14:17 -16.44764 -48.90034 12128 ft 382 kts 53°
2026-04-24 14:17 -16.41415 -48.85638 13194 ft 393 kts 53°
2026-04-24 14:18 -16.39689 -48.83384 13746 ft 397 kts 52°
2026-04-24 14:18 -16.37934 -48.81188 14294 ft 400 kts 52°
2026-04-24 14:18 -16.36236 -48.78860 14845 ft 402 kts 57°
2026-04-24 14:18 -16.34730 -48.76399 15381 ft 404 kts 60°
2026-04-24 14:19 -16.33337 -48.73883 15894 ft 406 kts 62°
2026-04-24 14:19 -16.31953 -48.71291 16409 ft 409 kts 62°
2026-04-24 14:19 -16.30587 -48.68723 16901 ft 411 kts 62°
2026-04-24 14:19 -16.29175 -48.66103 17394 ft 413 kts 62°
2026-04-24 14:20 -16.27765 -48.63520 17867 ft 416 kts 61°
2026-04-24 14:20 -16.26319 -48.60901 18324 ft 418 kts 61°
2026-04-24 14:20 -16.24852 -48.58266 18775 ft 421 kts 61°
2026-04-24 14:20 -16.23388 -48.55646 19210 ft 423 kts 61°
2026-04-24 14:21 -16.21897 -48.52985 19640 ft 425 kts 61°
2026-04-24 14:21 -16.20404 -48.50325 20046 ft 428 kts 60°
2026-04-24 14:21 -16.18897 -48.47640 20446 ft 431 kts 60°
2026-04-24 14:21 -16.17365 -48.44908 20842 ft 434 kts 60°
2026-04-24 14:22 -16.15844 -48.42199 21226 ft 436 kts 60°
2026-04-24 14:22 -16.14329 -48.39502 21584 ft 439 kts 60°
2026-04-24 14:22 -16.11214 -48.33956 22298 ft 445 kts 60°
2026-04-24 14:23 -16.09647 -48.31169 22646 ft 448 kts 60°
2026-04-24 14:23 -16.08084 -48.28387 22991 ft 450 kts 60°
2026-04-24 14:23 -16.06496 -48.25563 23341 ft 453 kts 60°
2026-04-24 14:23 -16.04902 -48.22729 23692 ft 456 kts 60°
2026-04-24 14:24 -16.03300 -48.19881 24038 ft 458 kts 60°
2026-04-24 14:24 -16.01681 -48.17005 24418 ft 460 kts 60°
2026-04-24 14:24 -16.00054 -48.14115 24795 ft 463 kts 60°
2026-04-24 14:24 -15.98437 -48.11244 25166 ft 465 kts 60°
2026-04-24 14:25 -15.96792 -48.08323 25540 ft 467 kts 60°
2026-04-24 14:25 -15.95146 -48.05398 25918 ft 469 kts 60°
2026-04-24 14:25 -15.93500 -48.02476 26292 ft 471 kts 61°
2026-04-24 14:25 -15.91824 -47.99505 26657 ft 473 kts 61°
2026-04-24 14:26 -15.90173 -47.96578 27015 ft 475 kts 61°
2026-04-24 14:26 -15.88483 -47.93585 27369 ft 478 kts 61°
2026-04-24 14:26 -15.86788 -47.90584 27715 ft 480 kts 61°
2026-04-24 14:26 -15.85124 -47.87639 28226 ft 477 kts 61°
2026-04-24 14:27 -15.83442 -47.84666 28723 ft 475 kts 62°
2026-04-24 14:27 -15.81782 -47.81730 29219 ft 473 kts 62°
2026-04-24 14:27 -15.80114 -47.78781 29712 ft 471 kts 62°
2026-04-24 14:27 -15.78460 -47.75859 30192 ft 470 kts 62°
2026-04-24 14:28 -15.76817 -47.72957 30666 ft 468 kts 62°
2026-04-24 14:28 -15.75169 -47.70046 31158 ft 466 kts 62°
2026-04-24 14:28 -15.73499 -47.67099 31652 ft 464 kts 62°
2026-04-24 14:28 -15.71873 -47.64230 32128 ft 462 kts 62°
2026-04-24 14:29 -15.70252 -47.61369 32601 ft 460 kts 62°
2026-04-24 14:29 -15.68615 -47.58484 33059 ft 459 kts 62°
2026-04-24 14:29 -15.67009 -47.55653 33499 ft 457 kts 62°
2026-04-24 14:29 -15.65401 -47.52818 33935 ft 455 kts 62°
2026-04-24 14:30 -15.63796 -47.49990 34367 ft 454 kts 62°
2026-04-24 14:30 -15.62194 -47.47169 34742 ft 453 kts 62°
2026-04-24 14:30 -15.60590 -47.44346 35105 ft 452 kts 62°
2026-04-24 14:30 -15.58992 -47.41533 35256 ft 455 kts 62°
2026-04-24 14:31 -15.57377 -47.38691 35266 ft 454 kts 62°
2026-04-24 14:31 -15.54177 -47.33070 35219 ft 448 kts 62°
2026-04-24 14:32 -15.50981 -47.27455 35206 ft 449 kts 62°
2026-04-24 14:32 -15.47781 -47.21840 35158 ft 448 kts 62°
2026-04-24 14:33 -15.44587 -47.16237 35152 ft 449 kts 62°
2026-04-24 14:33 -15.41409 -47.10666 35158 ft 449 kts 62°
2026-04-24 14:34 -15.38198 -47.05043 35152 ft 449 kts 62°
2026-04-24 14:34 -15.35027 -46.99495 35145 ft 449 kts 62°
2026-04-24 14:35 -15.31837 -46.93919 35140 ft 449 kts 62°
2026-04-24 14:35 -15.28668 -46.88383 35136 ft 449 kts 62°
2026-04-24 14:36 -15.25473 -46.82805 35132 ft 449 kts 62°
2026-04-24 14:36 -15.22299 -46.77268 35131 ft 449 kts 62°
2026-04-24 14:37 -15.19116 -46.71719 35132 ft 448 kts 62°
2026-04-24 14:37 -15.15929 -46.66166 35130 ft 448 kts 62°
2026-04-24 14:38 -15.12744 -46.60623 35127 ft 448 kts 62°
2026-04-24 14:38 -15.09541 -46.55050 35123 ft 448 kts 63°
2026-04-24 14:39 -15.06372 -46.49543 35120 ft 448 kts 63°
2026-04-24 14:39 -15.03153 -46.43951 35119 ft 448 kts 63°
2026-04-24 14:40 -14.99971 -46.38428 35121 ft 448 kts 63°
2026-04-24 14:40 -14.96757 -46.32853 35120 ft 448 kts 62°
2026-04-24 14:41 -14.93590 -46.27366 35118 ft 447 kts 62°
2026-04-24 14:41 -14.90681 -46.21692 35117 ft 444 kts 70°
2026-04-24 14:42 -14.88519 -46.15700 35121 ft 442 kts 75°
2026-04-24 14:42 -14.86652 -46.09624 35126 ft 441 kts 76°
2026-04-24 14:43 -14.84850 -46.03581 35130 ft 441 kts 76°
2026-04-24 14:43 -14.83043 -45.97566 35134 ft 440 kts 76°
2026-04-24 14:44 -14.81214 -45.91533 35129 ft 440 kts 76°
2026-04-24 14:44 -14.79375 -45.85510 35125 ft 440 kts 76°
2026-04-24 14:45 -14.77511 -45.79432 35120 ft 440 kts 76°
2026-04-24 14:45 -14.75672 -45.73446 35117 ft 440 kts 76°
2026-04-24 14:46 -14.73825 -45.67444 35117 ft 439 kts 76°
2026-04-24 14:46 -14.71955 -45.61377 35118 ft 439 kts 76°
2026-04-24 14:47 -14.70107 -45.55383 35118 ft 439 kts 76°
2026-04-24 14:47 -14.68252 -45.49372 35131 ft 439 kts 76°
2026-04-24 14:48 -14.66401 -45.43381 35142 ft 439 kts 76°
2026-04-24 14:48 -14.64556 -45.37417 35178 ft 439 kts 76°
2026-04-24 14:49 -14.62693 -45.31396 35220 ft 439 kts 75°
2026-04-24 14:49 -14.60834 -45.25399 35227 ft 439 kts 75°
2026-04-24 14:50 -14.58979 -45.19420 35227 ft 439 kts 75°
2026-04-24 14:50 -14.57112 -45.13411 35226 ft 438 kts 75°
2026-04-24 14:51 -14.55269 -45.07483 35228 ft 438 kts 75°
2026-04-24 14:51 -14.53388 -45.01439 35230 ft 438 kts 75°
2026-04-24 14:52 -14.51527 -44.95464 35227 ft 438 kts 76°
2026-04-24 14:52 -14.49658 -44.89471 35218 ft 438 kts 75°
2026-04-24 14:53 -14.47787 -44.83478 35210 ft 438 kts 75°
2026-04-24 14:53 -14.45916 -44.77490 35202 ft 437 kts 75°
2026-04-24 14:54 -14.44044 -44.71510 35197 ft 437 kts 75°
2026-04-24 14:54 -14.42186 -44.65583 35198 ft 437 kts 75°
2026-04-24 14:55 -14.40311 -44.59607 35199 ft 437 kts 75°
2026-04-24 14:55 -14.38440 -44.53651 35199 ft 436 kts 75°
2026-04-24 14:56 -14.36572 -44.47707 35199 ft 436 kts 75°
2026-04-24 14:56 -14.34714 -44.41803 35194 ft 436 kts 75°
2026-04-24 14:57 -14.32840 -44.35854 35189 ft 435 kts 75°
2026-04-24 14:57 -14.30975 -44.29932 35183 ft 435 kts 75°
2026-04-24 14:58 -14.29110 -44.24023 35176 ft 435 kts 75°
2026-04-24 14:58 -14.27241 -44.18101 35173 ft 434 kts 75°
2026-04-24 14:59 -14.25370 -44.12188 35171 ft 433 kts 75°
2026-04-24 14:59 -14.23500 -44.06276 35171 ft 434 kts 75°
2026-04-24 15:00 -14.21638 -44.00390 35171 ft 434 kts 75°
2026-04-24 15:00 -14.19762 -43.94465 35170 ft 433 kts 75°
2026-04-24 15:01 -14.17897 -43.88582 35169 ft 433 kts 75°
2026-04-24 15:01 -14.16022 -43.82671 35168 ft 433 kts 75°
2026-04-24 15:02 -14.14156 -43.76797 35166 ft 433 kts 75°
2026-04-24 15:02 -14.12291 -43.70929 35159 ft 433 kts 75°
2026-04-24 15:03 -14.10412 -43.65023 35151 ft 433 kts 75°
2026-04-24 15:03 -14.08542 -43.59152 35149 ft 434 kts 75°
2026-04-24 15:04 -14.06657 -43.53234 35150 ft 434 kts 75°
2026-04-24 15:04 -14.04781 -43.47352 35150 ft 434 kts 75°
2026-04-24 15:05 -14.02886 -43.41417 35151 ft 435 kts 75°
2026-04-24 15:05 -14.00999 -43.35512 35151 ft 435 kts 75°
2026-04-24 15:06 -13.99109 -43.29601 35151 ft 435 kts 75°
2026-04-24 15:06 -13.97226 -43.23730 35152 ft 434 kts 75°
2026-04-24 15:07 -13.95328 -43.17811 35156 ft 434 kts 75°
2026-04-24 15:07 -13.93431 -43.11899 35160 ft 434 kts 75°
2026-04-24 15:08 -13.91537 -43.06004 35166 ft 434 kts 75°
2026-04-24 15:08 -13.89641 -43.00108 35171 ft 434 kts 75°
2026-04-24 15:09 -13.87734 -42.94175 35180 ft 435 kts 75°
2026-04-24 15:09 -13.85838 -42.88288 35192 ft 435 kts 75°
2026-04-24 15:10 -13.83928 -42.82368 35206 ft 435 kts 75°
2026-04-24 15:10 -13.82034 -42.76503 35221 ft 435 kts 75°
2026-04-24 15:11 -13.80117 -42.70572 35232 ft 433 kts 75°
2026-04-24 15:11 -13.78221 -42.64705 35236 ft 436 kts 75°
2026-04-24 15:12 -13.76304 -42.58781 35238 ft 435 kts 75°
2026-04-24 15:12 -13.73446 -42.49962 35238 ft 435 kts 75°
2026-04-24 15:13 -13.71528 -42.44049 35227 ft 435 kts 75°
2026-04-24 15:13 -13.69619 -42.38172 35214 ft 435 kts 75°
2026-04-24 15:14 -13.67697 -42.32255 35200 ft 436 kts 75°
2026-04-24 15:14 -13.65766 -42.26318 35189 ft 436 kts 75°
2026-04-24 15:15 -13.63845 -42.20418 35187 ft 436 kts 75°
2026-04-24 15:15 -13.61914 -42.14490 35198 ft 436 kts 75°
2026-04-24 15:16 -13.59996 -42.08617 35217 ft 436 kts 75°
2026-04-24 15:16 -13.58060 -42.02699 35241 ft 436 kts 75°
2026-04-24 15:17 -13.56129 -41.96794 35257 ft 437 kts 75°
2026-04-24 15:17 -13.54193 -41.90875 35235 ft 436 kts 75°
2026-04-24 15:18 -13.52261 -41.84971 35205 ft 436 kts 75°
2026-04-24 15:18 -13.50328 -41.79073 35180 ft 436 kts 75°
2026-04-24 15:19 -13.48400 -41.73192 35159 ft 436 kts 75°
2026-04-24 15:19 -13.46461 -41.67282 35185 ft 436 kts 75°
2026-04-24 15:20 -13.44519 -41.61372 35220 ft 437 kts 75°
2026-04-24 15:20 -13.42576 -41.55459 35242 ft 438 kts 75°
2026-04-24 15:21 -13.40627 -41.49537 35173 ft 438 kts 75°
2026-04-24 15:21 -13.38680 -41.43628 35182 ft 437 kts 75°
2026-04-24 15:22 -13.36742 -41.37746 35202 ft 438 kts 75°
2026-04-24 15:23 -13.33825 -41.28905 35227 ft 439 kts 74°
2026-04-24 15:23 -13.30884 -41.20008 35247 ft 438 kts 74°
2026-04-24 15:25 -13.25977 -41.05181 35181 ft 439 kts 74°
2026-04-24 15:26 -13.21069 -40.90385 35143 ft 439 kts 74°
2026-04-24 15:27 -13.15155 -40.72591 35123 ft 440 kts 74°
2026-04-24 15:29 -13.09223 -40.54755 35151 ft 441 kts 74°
2026-04-24 15:31 -13.02252 -40.33903 35140 ft 442 kts 74°
2026-04-24 15:33 -12.94253 -40.10066 35129 ft 443 kts 74°
2026-04-24 15:33 -12.91254 -40.01160 34686 ft 434 kts 74°
2026-04-24 15:34 -12.89283 -39.95309 33409 ft 438 kts 74°
2026-04-24 15:35 -12.86619 -39.86243 30873 ft 450 kts 81°
2026-04-24 15:35 -12.85811 -39.79894 28923 ft 452 kts 89°
2026-04-24 15:35 -12.85690 -39.76670 27987 ft 454 kts 91°
2026-04-24 15:36 -12.85666 -39.73471 27016 ft 457 kts 92°
2026-04-24 15:36 -12.85742 -39.67018 25427 ft 441 kts 92°
2026-04-24 15:36 -12.85795 -39.63949 24784 ft 430 kts 92°
2026-04-24 15:37 -12.85848 -39.60896 24126 ft 427 kts 92°
2026-04-24 15:37 -12.85898 -39.57880 23471 ft 431 kts 92°
2026-04-24 15:37 -12.85944 -39.54782 22776 ft 433 kts 92°
2026-04-24 15:37 -12.85985 -39.51703 22073 ft 430 kts 91°
2026-04-24 15:38 -12.86021 -39.48684 21392 ft 429 kts 91°
2026-04-24 15:38 -12.86054 -39.45636 20693 ft 427 kts 91°
2026-04-24 15:38 -12.86086 -39.42606 19983 ft 426 kts 91°
2026-04-24 15:38 -12.86115 -39.39581 19261 ft 426 kts 91°
2026-04-24 15:39 -12.86143 -39.36579 18540 ft 425 kts 91°
2026-04-24 15:39 -12.86171 -39.33544 17803 ft 423 kts 90°
2026-04-24 15:39 -12.86197 -39.30540 17073 ft 419 kts 90°
2026-04-24 15:39 -12.86223 -39.27564 16344 ft 414 kts 90°
2026-04-24 15:40 -12.86246 -39.24662 15654 ft 405 kts 90°
2026-04-24 15:40 -12.86270 -39.21824 14980 ft 396 kts 90°
2026-04-24 15:40 -12.86292 -39.19015 14297 ft 388 kts 90°
2026-04-24 15:40 -12.86312 -39.16289 13645 ft 380 kts 90°
2026-04-24 15:41 -12.86325 -39.13643 13007 ft 373 kts 90°
2026-04-24 15:41 -12.86337 -39.10981 12368 ft 373 kts 90°
2026-04-24 15:41 -12.86380 -39.08323 11681 ft 375 kts 90°
2026-04-24 15:41 -12.86393 -39.05676 11154 ft 370 kts 90°
2026-04-24 15:42 -12.86405 -39.03076 10899 ft 357 kts 90°
2026-04-24 15:42 -12.86411 -39.00580 10766 ft 341 kts 90°
2026-04-24 15:42 -12.86413 -38.98220 10615 ft 327 kts 90°
2026-04-24 15:42 -12.86423 -38.95948 10467 ft 314 kts 91°
2026-04-24 15:43 -12.86451 -38.93744 10319 ft 302 kts 91°
2026-04-24 15:43 -12.86478 -38.91620 10130 ft 292 kts 91°
2026-04-24 15:43 -12.86519 -38.89573 9731 ft 287 kts 94°
2026-04-24 15:43 -12.86824 -38.87572 9372 ft 279 kts 105°
2026-04-24 15:44 -12.87430 -38.85713 9034 ft 275 kts 110°
2026-04-24 15:44 -12.88160 -38.83906 8666 ft 274 kts 112°
2026-04-24 15:44 -12.88864 -38.82099 8323 ft 271 kts 111°
2026-04-24 15:44 -12.89525 -38.80313 8004 ft 267 kts 110°
2026-04-24 15:45 -12.90149 -38.78541 7634 ft 266 kts 109°
2026-04-24 15:45 -12.90743 -38.76746 7300 ft 263 kts 109°
2026-04-24 15:45 -12.91347 -38.74994 6951 ft 261 kts 110°
2026-04-24 15:45 -12.91986 -38.73259 6636 ft 258 kts 111°
2026-04-24 15:46 -12.92602 -38.71554 6307 ft 256 kts 110°
2026-04-24 15:46 -12.93188 -38.69844 5989 ft 253 kts 110°
2026-04-24 15:46 -12.93768 -38.68151 5663 ft 251 kts 110°
2026-04-24 15:46 -12.94348 -38.66460 5355 ft 248 kts 110°
2026-04-24 15:47 -12.94920 -38.64804 5079 ft 244 kts 110°
2026-04-24 15:47 -12.95480 -38.63192 4978 ft 233 kts 110°
2026-04-24 15:47 -12.95993 -38.61664 4913 ft 226 kts 107°
2026-04-24 15:47 -12.96266 -38.60079 4797 ft 227 kts 93°
2026-04-24 15:48 -12.96132 -38.58493 4537 ft 224 kts 83°
2026-04-24 15:48 -12.95824 -38.56919 4273 ft 221 kts 81°
2026-04-24 15:48 -12.95500 -38.55384 4027 ft 216 kts 81°
2026-04-24 15:48 -12.95202 -38.53912 3881 ft 207 kts 81°
2026-04-24 15:49 -12.94919 -38.52471 3693 ft 202 kts 81°
2026-04-24 15:49 -12.94635 -38.51076 3383 ft 202 kts 82°
2026-04-24 15:49 -12.94366 -38.49690 3135 ft 199 kts 81°
2026-04-24 15:49 -12.94085 -38.48306 2867 ft 194 kts 81°
2026-04-24 15:50 -12.93817 -38.47000 2632 ft 179 kts 81°
2026-04-24 15:50 -12.93572 -38.45781 2384 ft 167 kts 82°
2026-04-24 15:50 -12.93358 -38.44693 2224 ft 149 kts 81°
2026-04-24 15:50 -12.93150 -38.43674 1988 ft 142 kts 82°
2026-04-24 15:51 -12.92955 -38.42687 1869 ft 141 kts 82°
2026-04-24 15:51 -12.92757 -38.41694 1630 ft 142 kts 82°
2026-04-24 15:51 -12.92558 -38.40716 1443 ft 141 kts 82°
2026-04-24 15:51 -12.92357 -38.39718 1287 ft 143 kts 81°
2026-04-24 15:52 -12.92145 -38.38723 1081 ft 143 kts 81°
2026-04-24 15:52 -12.91946 -38.37729 872 ft 141 kts 81°
2026-04-24 15:52 -12.91740 -38.36746 676 ft 143 kts 81°
2026-04-24 15:52 -12.91531 -38.35743 523 ft 142 kts 80°
2026-04-24 15:53 -12.91342 -38.34735 303 ft 142 kts 82°
2026-04-24 15:53 -12.91149 -38.33745 100 ft 142 kts 81°
2026-04-24 15:53 -12.90969 -38.32805 35 ft 117 kts 78°
2026-04-24 15:53 -12.90851 -38.32215 43 ft 55 kts 79°
2026-04-24 15:54 -12.90781 -38.31863 49 ft 41 kts 78°
2026-04-24 15:54 -12.90847 -38.31708 50 ft 19 kts 173°
2026-04-24 15:54 -12.90917 -38.31744 50 ft 11 kts 245°
2026-04-24 15:54 -12.90934 -38.31821 48 ft 11 kts 261°
2026-04-24 15:55 -12.90955 -38.31930 45 ft 19 kts 258°
2026-04-24 15:55 -12.90989 -38.32097 42 ft 27 kts 259°
2026-04-24 15:55 -12.91029 -38.32294 39 ft 28 kts 258°
2026-04-24 15:55 -12.91066 -38.32480 37 ft 19 kts 257°
2026-04-24 15:56 -12.91143 -38.32548 39 ft 13 kts 240°
2026-04-24 15:56 -12.91167 -38.32643 39 ft 16 kts 259°
2026-04-24 15:56 -12.91198 -38.32791 40 ft 25 kts 256°
2026-04-24 15:56 -12.91235 -38.32976 40 ft 26 kts 258°
2026-04-24 15:57 -12.91298 -38.33105 41 ft 17 kts 179°
2026-04-24 15:57 -12.91395 -38.33112 40 ft 11 kts 240°
2026-04-24 15:57 -12.91401 -38.33175 41 ft 7 kts 272°
2026-04-24 15:57 -12.91399 -38.33199 41 ft 0 kts 274°
2026-04-24 15:58 -12.91399 -38.33201 41 ft 0 kts 274°